TimeMST,TemperatureF,Dew PointF,Humidity,Sea Level PressureIn,VisibilityMPH,Wind Direction,Wind SpeedMPH,Gust SpeedMPH,PrecipitationIn,Events,Conditions,WindDirDegrees,DateUTC
12:53 AM,59.0,19.9,22,29.82,10.0,North,-9999.0,-,N/A,,Clear,0,2012-12-01 07:53:00
1:53 AM,57.9,21.0,24,29.81,10.0,North,-9999.0,-,N/A,,Clear,0,2012-12-01 08:53:00
3:53 AM,50.0,19.0,29,29.84,10.0,North,-9999.0,-,N/A,,Clear,0,2012-12-01 10:53:00
4:53 AM,54.0,19.9,26,29.82,10.0,North,-9999.0,-,N/A,,Clear,0,2012-12-01 11:53:00
5:53 AM,55.9,21.0,26,29.85,10.0,North,-9999.0,-,N/A,,Clear,0,2012-12-01 12:53:00
6:53 AM,55.0,21.9,28,29.86,10.0,North,-9999.0,-,N/A,,Clear,0,2012-12-01 13:53:00
8:53 AM,62.1,21.0,21,29.87,10.0,North,-9999.0,-,N/A,,Clear,0,2012-12-01 15:53:00
9:53 AM,63.0,21.0,20,29.88,10.0,North,-9999.0,-,N/A,,Clear,0,2012-12-01 16:53:00
10:53 AM,64.9,19.0,17,29.88,10.0,North,-9999.0,-,N/A,,Clear,0,2012-12-01 17:53:00
12:53 PM,72.0,17.1,12,29.82,10.0,North,-9999.0,-,N/A,,Clear,0,2012-12-01 19:53:00
1:53 PM,75.0,16.0,11,29.80,10.0,North,-9999.0,-,N/A,,Clear,0,2012-12-01 20:53:00
2:53 PM,75.9,15.1,10,29.81,10.0,North,-9999.0,-,N/A,,Clear,0,2012-12-01 21:53:00
3:53 PM,75.9,15.1,10,29.83,10.0,North,-9999.0,-,N/A,,Clear,0,2012-12-01 22:53:00
4:53 PM,64.9,14.0,14,29.85,10.0,North,-9999.0,-,N/A,,Clear,0,2012-12-01 23:53:00
5:53 PM,60.1,14.0,16,29.88,10.0,North,-9999.0,-,N/A,,Clear,0,2012-12-02 00:53:00
6:53 PM,61.0,17.1,18,29.90,10.0,North,-9999.0,-,N/A,,Clear,0,2012-12-02 01:53:00
7:53 PM,57.0,18.0,22,29.92,10.0,North,-9999.0,-,N/A,,Clear,0,2012-12-02 02:53:00
8:53 PM,52.0,18.0,26,29.93,10.0,North,-9999.0,-,N/A,,Clear,0,2012-12-02 03:53:00
9:53 PM,46.9,17.1,30,29.95,10.0,North,-9999.0,-,N/A,,Clear,0,2012-12-02 04:53:00
10:53 PM,43.0,16.0,34,29.96,10.0,North,-9999.0,-,N/A,,Clear,0,2012-12-02 05:53:00
11:53 PM,41.0,18.0,40,29.97,10.0,North,-9999.0,-,N/A,,Clear,0,2012-12-02 06:53:00